Fitchburg, MA

8:14 AM EDT on March 28, 2017 (GMT -0400)
Fitchburg Municipal

Weather History for KFIT - July, 2014

Change the Weather History Date:

Wednesday, July 23, 2014

  Actual Average (KORH) Record (KORH)
Temperature  
Mean Temperature 80 °F -  
Max Temperature 91 °F 80 °F 96 °F (1952)
Min Temperature 70 °F 61 °F 48 °F (1939)
Cooling Degree Days 16    
Growing Degree Days 30 (Base 50)    
Moisture  
Dew Point 68 °F    
Average Humidity 67    
Maximum Humidity 87    
Minimum Humidity 47    
Precipitation  
Precipitation 0.01 in - - ()
Sea Level Pressure  
Sea Level Pressure 29.87 in    
Wind  
Wind Speed 5 mph (SW)    
Max Wind Speed 13 mph    
Max Gust Speed 26 mph    
Visibility 10 miles    
Events Rain , Thunderstorm    
Averages and records for this station are not official NWS values.
T = Trace of Precipitation, MM = Missing Value Source: NWS Daily Summary

Daily Weather History Graph

Daily Weather History Graph

Search for Another Location

Airport or City:

Trip Planner

Search our weather history database for the weather conditions in past years. The results will help you decide how hot, cold, wet, or windy it might be!

Date:

Astronomy

Jul. 23, 2014 Rise Set
Actual Time 5:30 AM EDT 8:16 PM EDT
Civil Twilight 4:57 AM EDT 8:49 PM EDT
Nautical Twilight 4:15 AM EDT 9:30 PM EDT
Astronomical Twilight 3:27 AM EDT 10:18 PM EDT
Moon 2:47 AM EDT (7/23) 5:42 PM EDT (7/23)
Length of Visible Light 15h 51m
Length of Day
14h 46m
Waning Crescent, 10% of the Moon is Illuminated
Jul 23
Waning Crescent
Jul 26
New
Aug 3
First Quarter
Aug 10
Full
Aug 17
Last Quarter

Hourly Weather History & Observations

Time (EDT) Temp. Heat Index Dew Point Humidity Pressure Visibility Wind Dir Wind Speed Gust Speed Precip Events Conditions
12:52 AM 77.0 °F - 66.9 °F 71% 29.99 in 10.0 mi SW 3.5 mph - N/A   Clear
1:52 AM 75.9 °F - 66.9 °F 74% 29.97 in 10.0 mi Variable 3.5 mph - N/A   Clear
2:52 AM 75.0 °F - 66.0 °F 73% 29.97 in 10.0 mi Calm Calm - N/A   Clear
3:52 AM 73.0 °F - 66.0 °F 79% 29.95 in 10.0 mi Calm Calm - N/A   Clear
4:52 AM 72.0 °F - 66.0 °F 81% 29.95 in 10.0 mi Calm Calm - N/A   Clear
5:52 AM 70.0 °F - 66.0 °F 87% 29.94 in 8.0 mi Calm Calm - N/A   Clear
6:52 AM 75.0 °F - 66.9 °F 76% 29.93 in 10.0 mi Calm Calm - N/A   Clear
7:52 AM 77.0 °F - 68.0 °F 74% 29.94 in 10.0 mi WNW 9.2 mph - N/A   Clear
8:52 AM 79.0 °F - 68.0 °F 69% 29.93 in 10.0 mi WSW 5.8 mph - N/A   Scattered Clouds
9:52 AM 82.9 °F 86.5 °F 69.1 °F 63% 29.91 in 10.0 mi West 6.9 mph 16.1 mph N/A   Clear
10:52 AM 86.0 °F 90.7 °F 70.0 °F 59% 29.89 in 10.0 mi WSW 8.1 mph - N/A   Clear
11:52 AM 88.0 °F 92.9 °F 70.0 °F 55% 29.86 in 10.0 mi SSW 9.2 mph - N/A   Clear
12:52 PM 90.0 °F 95.4 °F 70.0 °F 52% 29.84 in 10.0 mi SSW 11.5 mph 17.3 mph N/A   Scattered Clouds
2:52 PM 91.0 °F 95.2 °F 68.0 °F 47% 29.80 in 10.0 mi SSW 12.7 mph 26.5 mph N/A   Clear
3:52 PM 91.0 °F 95.2 °F 68.0 °F 47% 29.78 in 10.0 mi SW 12.7 mph 23.0 mph N/A   Partly Cloudy
4:52 PM 91.0 °F 95.6 °F 69.1 °F 48% 29.76 in 10.0 mi SSW 12.7 mph - N/A   Clear
5:52 PM 89.1 °F 94.1 °F 70.0 °F 53% 29.75 in 10.0 mi SSW 11.5 mph - N/A   Partly Cloudy
6:52 PM 86.0 °F 91.5 °F 71.1 °F 61% 29.76 in 10.0 mi SSW 6.9 mph - N/A   Clear
7:52 PM 84.0 °F 89.0 °F 71.1 °F 65% 29.76 in 10.0 mi South 8.1 mph - N/A   Clear
8:52 PM 82.9 °F 87.5 °F 71.1 °F 67% 29.79 in 10.0 mi SW 5.8 mph - N/A Thunderstorm Partly Cloudy
9:52 PM 73.9 °F - 66.9 °F 79% 29.83 in 10.0 mi WNW 4.6 mph - 0.01 in Thunderstorm Thunderstorm
10:01 PM 73.9 °F - 66.9 °F 79% 29.83 in 9.0 mi NNW 4.6 mph - 0.00 in Rain , Thunderstorm Light Rain
10:37 PM 73.0 °F - 69.1 °F 87% 29.82 in 5.0 mi NNE 5.8 mph - 0.08 in Rain Rain